Погода в Бойково

Украина / Донецкая область     47°24′39″N   38°00′52″E
темп.,
°C
ветер,
м/с
пор.,
м/с
влажн.,
%
обл.,
%
осадки,
мм/ч
давл.,
гПа
погр.,
м
22 октября, пт
пт2200:00+10юз7159027 0.0 1018546
03:00+11юз81589100 0.0 1017603
06:00+12юз7138365 0.0 1016601
09:00+13юз814835 0.0 1016687
12:00+18юз811470 0.0 10161098
15:00+19юз89435 0.0 10151223
18:00+14ююз5106648 0.0 1016237
21:00+13юз41170100 0.0 1017247
23 октября, сб
сб2300:00+12ююз3877100 0.0 1016148
03:00+12юз367894 0.0 101697
06:00+11юз3576100 0.0 101693
09:00+13юз4772100 0.0 1016253
12:00+17юз5762100 0.0 1016632
15:00+19зюз5752100 0.0 10151398
18:00+15сз3668100 0.0 1016334
21:00+13сз4869100 0.0 1018573
24 октября, вс
вс2400:00+12ссз4847100 0.1 1019633
03:00+9ссз365247 0.1 1020136
06:00+7ссз365664 0.0 1021122
09:00+8ссз355097 0.0 1022310
12:00+12сз4637100 0.0 10221484
15:00+11сз5637100 0.0 10211602
18:00+9зсз3543100 0.0 1021119
21:00+6зсз310565 0.0 1022265
25 октября, пн
пн2500:00+5сз712647 0.0 1022644
03:00+4сз7127219 0.0 1023772
06:00+3ссз7117132 0.0 1025870
09:00+4ссз7955100 0.0 10271278
12:00+6с784511 0.0 10291329
15:00+7ссз67415 0.0 10301356
18:00+4ссз345060 0.0 103279
21:00+3ссз2256100 0.0 103337
26 октября, вт
вт2600:00+1ссв22610 0.0 103425
03:000ссв33670 0.0 103440
06:00−1ссв22680 0.0 103532
09:00+2св34530 0.0 1035266
12:00+6в33360 0.0 1034858
15:00+8в23290 0.0 1032937
18:00+5в22360 0.0 103214
21:00+3вюв11425 0.0 103210